Temperature
17 17 17 18 20 21 20 19 18 17 17 14 14 15 17 17 17 15 11 11 11 11 12 12 12 12 13 13 13 13 14 14 14 14 14 14 14 14 14 14 14 14 14 14 14 15 14 14 14
17 17 17 18 21 21 19 18 17 16 15 12 13 14 15 14 11 10 10 11 11 11 11 12 12 12 13 13 13 13 13 13 14 14 14 14 14 14 14 14 14 14 14 14 14 14 14 14 14
16 17 17 19 20 21 19 17 16 14 12 12 13 12 13 12 9 9 10 10 11 11 11 12 12 12 12 12 12 13 13 13 13 13 13 13 13 14 13 13 13 14 14 14 14 14 14 14 14
16 16 17 19 18 17 17 15 14 13 12 11 12 12 10 9 8 9 10 10 10 11 11 11 12 12 12 12 12 12 13 13 13 13 13 13 13 13 13 13 13 13 13 13 14 13 14 14 14
16 17 18 18 17 15 14 13 12 13 13 11 11 12 10 8 9 9 9 10 10 10 11 11 11 12 12 12 12 12 12 12 13 13 13 13 13 13 13 13 13 13 13 13 13 13 13 13 13
15 18 19 18 17 14 13 11 11 13 12 10 10 11 10 8 9 9 9 9 10 10 10 11 11 11 12 12 12 12 12 12 12 12 12 13 13 13 13 13 13 13 13 13 13 13 13 13 13
16 17 18 17 16 14 13 10 11 12 12 10 9 11 9 8 8 9 9 9 9 10 10 10 11 11 11 11 11 11 12 12 12 12 12 12 12 12 12 12 12 12 12 13 12 12 12 13 13
13 16 16 15 15 14 11 10 9 10 10 8 8 10 9 7 8 8 8 9 9 9 9 10 10 10 11 11 11 11 11 11 12 12 12 12 12 12 12 12 12 12 12 12 12 12 12 12 12
12 16 16 15 14 13 10 10 8 7 8 7 7 7 7 7 7 8 8 8 9 9 9 9 10 10 10 10 11 11 11 11 11 11 11 11 11 11 11 11 11 12 12 12 12 12 12 12 12
13 15 14 12 11 11 9 9 8 8 8 8 6 6 6 7 7 7 7 8 8 8 9 9 9 9 10 10 10 10 10 10 11 11 11 11 11 11 11 11 11 11 11 11 11 11 11 11 11
11 12 10 8 8 8 8 8 7 9 10 8 7 6 6 6 6 6 7 7 7 8 8 8 9 9 9 9 10 10 10 10 10 10 10 10 10 10 10 10 10 10 10 10 11 11 11 11 11
9 8 8 7 6 7 7 7 7 7 8 6 6 6 6 5 6 6 6 7 7 7 8 8 8 8 9 9 9 9 9 9 10 10 10 10 10 10 10 10 10 10 10 10 10 10 10 10 10
9 7 6 5 5 5 6 6 7 6 5 5 5 5 5 5 5 5 5 6 6 7 7 7 7 8 8 8 8 9 9 9 9 9 9 9 9 9 9 9 9 9 9 9 9 9 9 9 10
7 7 6 5 5 5 6 6 6 6 5 5 5 5 4 4 5 5 5 5 6 6 7 7 7 7 7 8 8 8 8 8 8 9 9 9 9 9 9 9 9 9 9 9 9 9 9 9 9
6 7 7 6 6 5 6 8 7 6 4 4 4 4 4 4 4 4 5 5 5 6 6 6 6 6 7 7 7 7 8 8 8 8 8 8 8 8 8 8 8 9 9 9 9 9 9 9 9
8 9 10 8 6 5 7 10 8 5 4 4 4 4 3 3 4 4 4 4 5 5 5 6 6 6 6 6 7 7 7 7 7 7 8 8 8 8 8 8 8 8 8 8 8 8 8 8 8
9 10 10 8 6 6 7 9 8 4 4 4 4 3 3 3 3 4 4 4 4 4 5 5 5 6 6 6 6 6 6 7 7 7 7 7 7 7 7 7 7 7 8 8 8 8 8 8 8
10 10 9 9 7 6 6 8 7 5 4 4 4 3 2 2 2 3 4 4 4 4 4 4 5 5 5 5 5 6 6 6 6 6 6 6 7 7 7 7 7 7 7 7 7 7 7 7 7
8 8 8 8 6 5 6 7 7 5 4 3 3 2 2 2 2 2 3 3 3 4 4 4 4 4 4 5 5 5 5 5 6 6 6 6 6 6 6 6 6 6 6 7 6 6 6 7 7
7 7 8 7 5 5 5 6 6 5 4 3 3 2 2 1 2 2 3 3 3 3 3 4 4 4 4 4 4 4 5 5 5 5 5 5 5 5 6 6 6 6 6 6 6 6 6 6 6
6 7 7 6 5 4 4 8 7 5 3 2 2 2 2 1 1 2 2 2 2 3 3 3 3 3 3 3 4 4 4 4 4 4 4 5 5 5 5 5 5 5 6 6 6 6 6 5 5
7 5 5 5 6 7 5 8 8 5 4 4 3 2 1 1 1 1 1 2 2 2 3 3 3 3 3 3 3 3 3 3 4 4 4 4 4 4 4 4 5 5 5 5 5 5 5 5 5
5 4 4 4 5 5 5 6 9 5 5 4 3 2 1 0 0 1 1 1 2 2 2 2 2 2 2 2 3 3 3 3 3 3 3 3 3 3 4 4 4 4 4 4 4 5 5 5 5
3 3 3 3 5 6 5 6 8 6 5 4 3 1 0 0 -0 0 1 1 1 1 2 2 2 2 2 2 2 2 2 2 2 2 2 3 3 3 3 3 3 3 3 4 4 4 4 4 4
4 5 6 7 7 7 4 4 6 5 3 2 1 0 -0 -1 -1 -0 0 0 1 1 1 1 2 2 2 1 2 2 2 2 2 2 2 2 2 2 2 2 2 3 3 3 3 3 3 4 3
3 4 6 7 8 8 3 4 6 3 1 -0 -0 -1 -1 -1 -1 -1 -1 -0 -0 0 1 1 1 1 1 1 1 1 1 1 1 1 1 1 1 1 1 2 2 2 2 2 2 3 3 3 3
3 4 3 4 3 4 6 5 4 2 1 0 -0 -1 -1 -1 -1 -1 -1 -1 -1 -0 -0 0 0 0 1 1 1 1 1 1 1 1 1 1 1 1 1 1 1 1 2 2 2 2 2 2 2
2 2 3 4 5 6 7 5 6 3 2 1 0 -1 -1 -1 -2 -2 -2 -1 -1 -1 -1 -0 -0 -0 -0 0 0 0 0 0 0 0 0 1 1 1 1 1 1 1 1 1 1 1 2 2 2
1 1 1 3 3 5 6 6 4 2 2 1 -0 -1 -2 -2 -2 -2 -2 -2 -2 -2 -1 -1 -1 -1 -1 -0 -0 -0 -0 -0 0 -0 0 0 0 0 0 0 0 1 1 1 1 1 1 1 1
0 1 1 3 2 2 4 5 2 1 -0 -1 -1 -2 -2 -2 -2 -2 -2 -2 -2 -2 -2 -2 -1 -1 -1 -1 -1 -1 -1 -1 -1 -1 -0 -0 -0 -0 -0 -0 -0 0 0 0 0 1 1 1 1
Wind_Speed
8 5 2 2 3 3 5 4 3 3 3 1 1 1 1 0 1 2 3 4 6 5 5 5 7 6 5 5 5 4 5 6 6 7 7 8 8 8 9 10 10 11 11 12 12 12 12 12 12
5 2 2 2 5 6 5 5 5 3 2 2 2 1 1 2 3 3 2 5 5 5 5 5 7 6 5 5 6 5 5 5 6 6 6 7 7 8 9 10 10 11 11 11 11 11 11 11 11
2 1 1 3 4 6 5 3 4 2 3 1 1 1 1 2 3 2 4 4 4 5 5 6 7 7 6 5 5 5 6 5 5 5 6 6 6 7 9 9 10 10 10 10 10 11 10 10 10
1 2 1 3 6 4 1 2 3 4 3 1 0 2 2 3 2 3 3 3 3 5 6 6 7 7 8 6 5 5 5 6 5 5 6 6 7 7 8 9 9 9 10 10 9 10 10 10 9
0 2 3 4 6 3 1 2 3 3 3 1 1 1 2 3 4 3 3 3 3 4 6 6 8 7 8 7 6 6 6 5 5 5 6 6 7 8 8 8 8 8 9 9 9 9 9 9 8
1 2 5 7 7 3 2 2 3 3 2 1 1 1 2 3 4 3 3 2 3 3 5 6 7 8 8 8 5 5 6 6 5 5 5 6 7 7 8 8 7 8 8 8 8 8 8 8 8
1 2 4 6 6 5 3 2 3 3 3 1 1 2 2 1 3 3 2 2 3 4 5 5 5 6 7 8 7 5 5 5 5 5 5 5 6 7 7 7 7 7 7 7 7 7 7 7 7
1 2 4 5 6 6 4 3 1 2 1 1 1 2 1 1 3 2 1 2 3 4 4 5 5 5 5 5 6 5 4 4 5 5 5 5 6 6 6 6 6 6 7 7 6 6 6 6 6
1 3 5 5 5 3 4 3 1 0 1 1 1 2 3 1 1 0 1 2 3 4 4 4 4 5 4 4 5 6 4 4 4 4 4 4 3 4 4 5 5 6 6 6 6 5 5 5 5
0 3 3 0 1 2 4 3 2 2 3 3 2 2 2 1 0 0 0 2 2 3 3 4 4 4 4 4 3 3 2 2 2 2 2 1 2 2 3 5 5 5 5 5 5 5 4 3 3
2 2 2 2 2 2 3 3 2 4 5 5 5 3 1 1 1 1 1 2 2 3 3 3 4 4 4 3 3 2 2 1 1 1 1 1 1 2 2 3 3 3 4 3 3 3 2 1 2
3 2 2 2 1 1 2 2 3 5 3 3 3 2 3 3 3 2 2 3 3 2 3 3 3 3 3 3 2 2 2 2 1 1 1 1 1 1 1 1 2 2 2 1 1 1 0 1 1
2 3 2 2 1 0 1 3 4 5 4 2 1 2 3 4 4 3 3 3 3 3 3 3 4 3 2 2 2 2 2 2 1 1 0 0 0 0 0 1 1 2 2 1 1 1 1 0 0
3 3 2 0 1 1 3 4 4 5 3 3 2 3 4 4 4 3 3 3 3 3 3 3 2 3 2 1 1 2 1 2 1 0 1 1 0 0 1 1 1 1 2 2 2 2 1 1 1
3 2 1 1 2 1 3 7 6 4 3 3 3 3 3 3 3 3 3 4 4 4 3 3 2 2 2 2 1 1 1 1 1 1 1 1 1 1 1 1 1 1 2 2 2 2 2 1 1
2 2 3 1 1 2 4 9 3 2 3 5 4 4 4 4 4 4 4 4 4 4 3 3 2 2 3 3 2 1 1 1 1 1 1 2 1 1 1 1 1 2 2 3 2 2 2 2 2
2 3 4 2 1 2 5 9 3 2 4 6 5 5 5 5 4 4 4 4 4 4 3 3 3 3 3 3 3 2 1 1 1 2 1 2 2 2 2 2 2 2 2 3 3 3 3 3 2
3 4 4 5 1 4 8 11 7 4 5 7 7 6 6 6 5 4 4 4 4 4 3 3 3 3 3 3 3 2 1 1 2 2 2 2 2 3 2 2 2 2 2 3 4 4 3 3 3
2 4 6 5 2 5 10 13 11 6 6 6 6 6 6 6 5 3 3 3 3 4 3 3 3 3 3 2 3 2 2 2 2 2 3 3 3 3 3 2 2 2 3 3 4 4 4 3 2
4 5 6 4 2 5 9 12 8 4 4 4 4 4 4 4 3 3 3 3 4 4 3 3 3 3 3 3 3 3 3 3 3 3 3 3 3 3 3 3 3 3 3 4 4 4 4 3 3
5 6 6 6 5 3 7 8 5 2 3 2 3 3 3 4 4 4 4 4 4 3 3 3 4 4 4 4 2 2 3 3 3 4 4 4 4 4 4 5 4 4 4 4 5 5 6 5 5
5 3 5 5 5 4 3 5 3 1 2 2 2 2 3 4 4 4 4 4 4 4 3 3 3 3 3 3 2 3 3 4 5 4 4 5 5 5 5 6 6 5 4 5 5 5 5 6 6
2 1 4 5 5 5 4 5 4 1 3 4 4 4 4 4 4 4 4 4 4 3 3 3 3 3 3 3 3 4 4 5 4 4 5 5 5 6 6 6 6 6 5 6 6 6 6 6 7
0 0 0 2 3 5 5 6 5 1 3 4 4 5 5 5 4 4 4 4 3 3 2 3 3 3 3 3 3 4 5 5 5 6 6 5 5 6 7 7 7 7 6 6 7 7 8 7 8
0 1 2 2 3 4 2 5 6 2 3 4 4 5 5 5 4 4 4 3 3 3 3 3 3 4 4 4 4 4 5 6 6 6 7 6 6 6 7 7 7 7 7 7 7 8 8 9 9
2 2 2 4 5 4 2 6 3 2 3 4 4 5 5 5 5 5 4 4 4 3 3 3 3 5 5 5 5 5 6 5 5 6 6 7 6 7 7 8 8 9 8 8 8 8 9 9 10
2 2 1 1 2 5 5 5 5 3 4 4 4 4 5 6 6 6 5 4 4 4 4 4 4 5 5 6 6 6 6 6 6 7 7 7 7 7 8 8 9 9 9 9 9 8 9 10 10
1 3 3 3 3 6 6 5 3 2 3 4 4 5 6 6 6 7 6 5 5 5 5 5 5 6 6 6 6 6 7 7 7 7 8 8 8 8 8 8 8 9 9 9 9 9 10 11 11
3 3 3 3 3 5 6 4 0 3 3 4 5 5 6 7 7 7 7 6 5 5 5 6 6 6 7 7 7 7 7 7 7 7 8 8 8 8 8 8 8 8 9 9 9 10 11 12 11
3 4 5 4 4 4 6 6 2 2 3 3 5 6 7 7 7 7 7 7 6 6 7 7 7 7 7 7 7 7 7 7 7 8 8 7 7 7 7 8 8 8 9 9 9 10 10 11 11
Wind_Direction
334 326 274 225 194 203 215 190 183 159 158 90 66 205 187 165 341 85 57 19 358 353 356 354 2 11 24 42 61 85 84 91 93 92 91 87 80 78 78 75 73 73 75 74 72 70 70 72 75
332 311 222 207 218 215 210 196 192 176 114 110 114 129 137 96 47 60 41 357 354 5 8 10 16 18 29 42 56 70 83 93 96 94 92 89 83 83 81 77 76 75 76 75 73 73 70 72 73
327 333 198 186 216 228 204 170 178 125 110 109 116 60 51 78 70 44 8 349 1 18 18 21 21 23 27 40 53 63 72 83 98 97 95 91 86 87 83 80 77 76 76 76 76 74 72 71 73
261 155 150 212 213 219 188 130 148 149 143 77 137 128 101 57 36 16 9 7 23 29 25 30 25 28 28 38 51 60 70 71 83 97 96 92 90 88 83 81 78 78 77 77 77 75 73 71 72
314 187 188 213 223 190 151 107 158 172 162 134 183 169 141 90 39 34 29 26 32 30 25 34 32 30 27 34 52 61 64 68 72 85 96 94 89 88 86 82 80 80 79 76 77 77 74 71 72
152 193 213 222 213 186 169 163 179 196 180 165 185 191 167 91 42 18 18 27 36 32 26 34 34 32 30 29 45 64 64 62 65 77 90 100 96 93 90 86 83 84 83 79 78 79 75 71 71
188 192 220 220 211 207 181 172 200 209 208 192 244 194 169 124 9 352 358 27 38 35 31 32 31 29 28 28 36 57 67 66 63 72 76 87 100 101 94 89 89 88 85 80 78 78 76 73 71
37 163 197 212 214 211 159 161 180 236 205 72 241 223 199 294 328 325 20 45 41 37 31 26 25 25 23 27 35 39 64 69 66 67 65 79 99 112 104 97 89 89 87 82 79 79 80 75 73
271 203 217 214 214 199 161 182 156 325 180 191 270 329 350 10 345 335 38 18 20 22 20 16 16 19 18 19 39 35 49 71 78 75 68 90 105 122 124 102 95 91 91 88 82 79 84 84 84
341 213 216 166 222 178 175 200 182 192 214 233 264 308 358 93 117 183 315 329 337 349 359 2 5 11 13 13 25 31 34 79 93 95 95 102 111 103 121 114 106 102 98 98 87 86 100 109 107
68 172 145 104 69 142 176 195 205 215 232 246 256 257 254 220 234 265 280 284 303 319 335 348 355 3 9 5 4 11 16 15 69 83 98 98 105 100 104 131 126 122 121 112 106 118 107 94 93
105 95 117 122 88 144 183 195 216 235 256 322 286 222 206 222 233 252 278 300 298 310 327 336 347 350 357 354 358 355 10 2 14 17 62 99 73 77 106 140 161 166 166 150 164 168 139 103 118
134 135 104 99 106 116 224 240 257 254 257 292 290 219 216 222 238 255 275 285 293 297 312 322 339 333 340 346 346 350 355 347 325 336 342 240 120 137 128 200 187 196 193 192 211 213 199 189 162
120 135 138 315 248 245 251 262 253 255 247 245 241 231 229 235 242 256 272 276 287 283 295 309 318 333 333 329 330 337 335 326 323 310 322 289 239 202 260 244 227 216 216 216 224 230 231 232 231
128 144 194 233 246 231 265 255 232 242 223 232 243 251 255 264 262 258 266 277 286 281 283 298 305 321 327 303 296 314 318 300 323 292 256 255 267 240 243 255 243 234 228 216 223 224 229 232 232
162 206 239 183 222 230 249 260 217 204 219 241 252 262 264 265 266 270 271 277 284 289 288 288 301 304 313 309 276 276 281 274 290 279 248 245 251 251 248 248 260 253 237 219 219 225 227 226 233
188 243 261 245 193 250 243 266 261 225 239 256 264 267 266 270 274 276 271 274 278 283 277 288 283 287 296 294 277 253 254 267 265 266 263 254 244 238 250 251 254 254 244 234 219 220 229 232 238
240 255 261 262 270 268 258 265 271 263 261 267 270 270 269 267 267 271 272 273 279 285 276 286 295 297 295 288 273 248 239 270 261 263 261 254 254 248 248 259 253 250 250 236 223 218 226 231 235
239 245 265 282 312 279 269 275 276 275 264 267 268 269 268 267 271 276 284 284 289 293 287 287 294 303 307 291 270 258 248 259 255 263 257 248 257 262 262 259 257 255 243 244 236 224 220 225 226
232 253 268 281 303 287 288 281 275 259 249 259 263 264 261 269 281 288 287 287 289 285 290 292 293 294 296 290 274 260 263 252 254 261 256 248 252 259 260 261 251 253 250 246 241 227 219 226 219
238 249 265 283 307 263 298 271 237 235 230 263 272 280 278 272 276 279 278 281 283 281 286 285 291 295 296 290 281 271 254 252 253 256 255 255 254 255 256 259 253 245 243 238 241 236 225 221 226
255 251 265 275 286 276 298 282 243 245 269 288 296 306 310 298 292 288 287 287 284 279 284 283 286 290 288 285 276 261 257 260 263 261 260 260 256 255 254 255 253 246 243 239 238 240 239 224 221
285 311 265 261 255 268 239 260 274 335 284 298 309 318 320 318 304 296 291 281 277 280 287 285 284 291 292 287 280 270 266 263 268 265 260 255 252 250 248 249 249 247 245 245 241 241 240 232 225
192 282 207 198 227 250 230 239 275 257 283 306 324 333 335 333 328 310 304 288 280 282 287 286 280 286 287 287 279 270 272 274 272 272 262 255 252 248 247 246 247 247 247 246 248 243 239 238 236
260 275 294 265 235 249 155 238 260 304 314 308 312 325 334 336 331 323 320 304 287 286 290 286 285 287 288 286 278 278 277 275 268 269 264 256 254 252 248 245 245 245 247 248 246 245 243 240 240
223 231 237 267 274 282 216 244 261 348 326 313 308 315 330 339 337 331 319 310 303 304 305 299 294 292 294 290 287 283 279 276 274 266 264 257 255 254 258 249 245 245 245 247 246 245 244 243 240
190 203 308 260 280 270 255 267 282 306 316 324 322 329 333 336 335 330 322 314 310 307 301 296 293 296 302 301 299 288 280 275 276 275 262 260 256 257 255 253 249 246 244 245 247 246 244 244 241
334 161 175 209 255 267 269 264 269 290 306 329 329 325 328 332 330 328 324 317 314 308 306 304 299 301 302 302 300 294 288 283 280 279 265 259 260 257 255 254 253 249 247 245 244 247 246 244 243
170 177 211 218 250 259 276 273 187 242 273 295 307 316 321 322 323 324 325 321 318 315 311 309 306 304 304 305 300 294 290 290 288 283 272 262 260 255 252 253 252 252 251 249 247 247 247 243 243
228 217 199 225 234 237 266 276 64 267 290 296 309 317 319 318 318 319 319 323 324 323 322 315 308 305 304 301 297 293 293 295 292 288 282 273 263 258 253 252 252 250 251 252 251 251 246 242 242
Height
1516 1517 1518 1521 1521 1520 1521 1525 1527 1531 1532 1536 1536 1535 1534 1535 1536 1543 1543 1540 1540 1541 1541 1542 1543 1543 1544 1544 1544 1544 1544 1544 1544 1544 1544 1544 1544 1544 1544 1544 1544 1544 1544 1543 1543 1543 1543 1543 1542
1517 1518 1520 1521 1517 1518 1522 1525 1529 1531 1535 1537 1537 1537 1536 1538 1540 1541 1540 1539 1540 1541 1541 1542 1542 1543 1543 1544 1544 1544 1544 1544 1545 1545 1544 1544 1544 1545 1545 1545 1544 1544 1544 1544 1544 1544 1544 1543 1543
1517 1518 1521 1518 1517 1515 1519 1526 1530 1535 1537 1537 1537 1538 1539 1540 1541 1540 1540 1539 1540 1541 1541 1541 1542 1543 1543 1543 1544 1544 1544 1544 1545 1545 1545 1545 1545 1545 1545 1545 1545 1545 1544 1544 1544 1544 1544 1544 1544
1518 1520 1521 1519 1519 1523 1526 1531 1534 1535 1537 1538 1538 1539 1540 1540 1540 1540 1539 1539 1540 1540 1541 1541 1542 1542 1542 1543 1543 1544 1544 1544 1544 1545 1545 1545 1545 1545 1545 1545 1545 1545 1545 1545 1544 1544 1544 1544 1544
1518 1519 1518 1520 1522 1527 1532 1535 1536 1535 1536 1538 1539 1538 1540 1540 1539 1539 1539 1539 1539 1540 1540 1540 1541 1542 1542 1542 1543 1543 1543 1544 1544 1544 1544 1545 1545 1545 1544 1544 1545 1545 1545 1545 1545 1544 1544 1544 1544
1519 1517 1515 1516 1521 1529 1534 1536 1536 1536 1537 1539 1539 1539 1539 1539 1538 1538 1538 1538 1539 1539 1540 1540 1540 1541 1541 1542 1542 1542 1543 1543 1543 1544 1544 1544 1544 1544 1544 1544 1544 1545 1544 1544 1544 1544 1544 1544 1544
1519 1517 1516 1517 1522 1528 1534 1536 1536 1536 1537 1539 1539 1539 1538 1538 1537 1537 1538 1538 1538 1539 1539 1539 1539 1540 1540 1541 1541 1542 1542 1542 1543 1543 1543 1544 1544 1544 1544 1544 1544 1544 1544 1544 1544 1544 1544 1544 1544
1519 1520 1520 1521 1523 1526 1534 1537 1537 1537 1537 1539 1539 1538 1538 1537 1536 1536 1537 1537 1538 1538 1538 1538 1539 1539 1539 1539 1540 1540 1541 1541 1542 1542 1543 1543 1543 1543 1543 1544 1544 1544 1544 1544 1544 1544 1543 1543 1544
1520 1520 1518 1522 1524 1528 1535 1536 1537 1537 1538 1538 1538 1538 1537 1536 1535 1535 1536 1536 1536 1537 1537 1537 1537 1538 1538 1538 1538 1539 1539 1540 1541 1541 1542 1542 1542 1543 1543 1543 1543 1543 1543 1543 1543 1543 1543 1543 1543
1521 1519 1522 1529 1530 1531 1535 1536 1537 1537 1536 1536 1536 1536 1535 1534 1534 1534 1534 1534 1534 1534 1535 1535 1536 1536 1536 1536 1537 1537 1538 1538 1539 1540 1541 1541 1541 1541 1542 1542 1542 1542 1542 1543 1543 1543 1543 1543 1543
1525 1524 1530 1533 1534 1534 1535 1536 1536 1535 1533 1534 1534 1533 1533 1533 1533 1532 1532 1533 1533 1533 1533 1533 1533 1534 1534 1534 1535 1535 1536 1537 1537 1538 1539 1539 1540 1540 1540 1541 1541 1541 1541 1542 1542 1542 1542 1542 1542
1529 1532 1533 1534 1534 1535 1535 1535 1535 1534 1533 1533 1532 1532 1532 1531 1531 1530 1530 1531 1531 1531 1531 1531 1531 1532 1532 1532 1532 1533 1533 1534 1535 1536 1537 1537 1538 1538 1539 1539 1540 1540 1540 1540 1541 1541 1541 1541 1541
1530 1533 1535 1535 1535 1535 1535 1535 1534 1532 1532 1531 1530 1530 1530 1530 1529 1529 1529 1529 1529 1529 1529 1529 1529 1529 1530 1530 1530 1531 1531 1532 1533 1534 1534 1535 1535 1536 1536 1537 1538 1538 1539 1539 1539 1540 1540 1540 1540
1532 1533 1535 1535 1535 1535 1534 1533 1533 1529 1530 1529 1529 1528 1528 1528 1528 1527 1527 1527 1526 1527 1527 1527 1527 1527 1527 1528 1528 1528 1529 1529 1530 1531 1532 1533 1533 1534 1534 1535 1535 1536 1537 1537 1538 1538 1538 1539 1539
1533 1533 1533 1534 1534 1534 1534 1528 1528 1527 1528 1528 1527 1527 1526 1526 1525 1525 1525 1524 1524 1524 1525 1525 1524 1525 1525 1525 1525 1526 1526 1527 1528 1529 1530 1531 1531 1532 1532 1533 1533 1534 1535 1535 1536 1536 1537 1537 1537
1532 1529 1526 1531 1533 1533 1534 1519 1524 1526 1526 1526 1526 1525 1524 1523 1523 1523 1522 1522 1522 1522 1522 1522 1522 1522 1522 1523 1523 1523 1524 1524 1525 1525 1526 1527 1528 1529 1530 1530 1530 1531 1532 1533 1533 1534 1534 1535 1535
1526 1522 1522 1527 1532 1532 1530 1519 1522 1524 1525 1524 1523 1523 1522 1521 1520 1520 1520 1520 1519 1519 1519 1519 1519 1519 1519 1520 1520 1520 1521 1521 1522 1522 1523 1524 1525 1526 1527 1527 1527 1528 1529 1530 1531 1531 1532 1532 1533
1521 1521 1522 1523 1529 1531 1526 1520 1520 1523 1523 1521 1521 1520 1519 1518 1517 1517 1517 1517 1516 1516 1516 1516 1517 1516 1516 1517 1517 1517 1517 1518 1519 1519 1519 1520 1521 1522 1523 1524 1524 1525 1525 1526 1527 1528 1529 1530 1530
1526 1525 1523 1524 1530 1529 1522 1517 1516 1518 1519 1518 1518 1517 1516 1515 1515 1515 1514 1514 1513 1513 1513 1513 1513 1513 1513 1513 1513 1513 1513 1514 1515 1515 1516 1517 1518 1518 1519 1520 1521 1521 1522 1522 1524 1525 1526 1527 1528
1528 1526 1523 1525 1531 1529 1522 1515 1513 1515 1516 1516 1515 1514 1513 1512 1512 1511 1511 1510 1510 1510 1509 1510 1510 1510 1510 1510 1510 1510 1510 1511 1511 1512 1512 1513 1514 1514 1515 1516 1516 1517 1518 1519 1520 1521 1522 1523 1525
1527 1525 1524 1525 1528 1528 1525 1507 1507 1511 1514 1514 1513 1512 1511 1510 1509 1509 1508 1508 1507 1507 1507 1507 1507 1507 1507 1507 1507 1507 1507 1507 1508 1508 1508 1509 1509 1510 1511 1511 1512 1513 1514 1514 1515 1517 1518 1519 1521
1524 1529 1529 1529 1525 1517 1524 1504 1500 1508 1510 1510 1510 1510 1509 1509 1508 1506 1505 1504 1504 1504 1504 1504 1504 1504 1504 1504 1503 1503 1502 1502 1503 1504 1503 1504 1505 1506 1507 1507 1508 1508 1509 1510 1511 1512 1513 1515 1516
1528 1532 1531 1529 1526 1522 1520 1516 1496 1506 1505 1506 1508 1508 1508 1507 1506 1504 1503 1503 1502 1502 1502 1502 1502 1501 1501 1501 1500 1500 1499 1499 1499 1499 1499 1500 1500 1501 1502 1503 1503 1504 1504 1505 1506 1508 1509 1509 1511
1533 1531 1530 1529 1524 1515 1515 1513 1495 1502 1506 1506 1508 1508 1507 1505 1504 1502 1501 1500 1500 1499 1499 1499 1499 1499 1498 1498 1497 1496 1496 1495 1495 1495 1495 1495 1496 1496 1497 1497 1498 1498 1499 1500 1501 1502 1504 1504 1506
1531 1525 1516 1512 1509 1502 1520 1517 1502 1505 1509 1509 1509 1508 1506 1505 1503 1501 1499 1498 1497 1496 1496 1495 1495 1495 1495 1494 1494 1493 1492 1491 1491 1491 1490 1490 1491 1491 1491 1492 1492 1493 1494 1495 1496 1497 1498 1499 1500
1531 1527 1519 1512 1502 1498 1519 1510 1501 1509 1510 1509 1509 1507 1505 1503 1502 1500 1498 1497 1495 1494 1493 1492 1492 1491 1491 1490 1489 1489 1488 1487 1487 1486 1486 1486 1486 1486 1486 1487 1487 1488 1488 1489 1490 1491 1491 1493 1494
1530 1528 1532 1526 1528 1519 1502 1505 1505 1506 1507 1507 1507 1505 1504 1502 1501 1499 1497 1496 1494 1492 1491 1490 1489 1488 1487 1486 1485 1484 1483 1483 1482 1482 1482 1481 1481 1481 1481 1481 1482 1482 1483 1483 1484 1485 1485 1487 1488
1535 1533 1532 1526 1517 1502 1494 1499 1496 1503 1504 1506 1506 1506 1504 1502 1500 1498 1496 1494 1492 1490 1489 1488 1486 1485 1484 1482 1480 1479 1479 1478 1477 1477 1476 1476 1476 1476 1476 1476 1476 1477 1477 1478 1478 1479 1479 1480 1481
1536 1537 1532 1526 1524 1510 1498 1493 1502 1504 1505 1506 1506 1505 1504 1502 1500 1497 1495 1492 1490 1489 1487 1485 1484 1482 1480 1478 1477 1476 1475 1473 1472 1471 1471 1470 1470 1470 1470 1470 1470 1471 1471 1471 1472 1472 1473 1473 1474
1535 1532 1531 1524 1522 1524 1510 1500 1505 1505 1505 1506 1505 1504 1503 1501 1499 1496 1494 1491 1488 1487 1485 1483 1480 1478 1476 1475 1473 1472 1470 1468 1467 1466 1465 1464 1464 1464 1464 1464 1464 1464 1464 1464 1465 1465 1466 1467 1467